Weather History for KLIC - March, 2013

Change the Weather History Date:

Saturday, March 9, 2013

  Actual Average Record
Temperature  
Mean Temperature 26 °F -  
Max Temperature 33 °F - 72 °F (2014)
Min Temperature 19 °F - -4 °F (2002)
Degree Days  
Heating Degree Days 39    
Month to date heating degree days 247  
Cooling Degree Days 0    
Month to date cooling degree days 0  
Moisture  
Dew Point 27 °F    
Average Humidity 91    
Maximum Humidity 100    
Minimum Humidity 81    
Precipitation  
Precipitation 0.17 in - 0.17 in (2013)
Month to date precipitation 0.17  
Year to date precipitation 1.03  
Sea Level Pressure  
Sea Level Pressure 29.72 in    
Wind  
Wind Speed 19 mph (NNW)    
Max Wind Speed 43 mph    
Max Gust Speed 53 mph    
Visibility 3 miles    
Events Fog , Snow    
T = Trace of Precipitation, MM = Missing Value Source: NWS Daily Summary

Daily Weather History Graph

Daily Weather History Graph

Search for Another Location

Airport or City:

Trip Planner

Search our weather history database for the weather conditions in past years. The results will help you decide how hot, cold, wet, or windy it might be!

Date:

Astronomy

Mar. 09, 2013 Rise Set
Actual Time 6:14 AM MST 5:55 PM MST
Civil Twilight 5:48 AM MST 6:22 PM MST
Nautical Twilight 5:17 AM MST 6:53 PM MST
Astronomical Twilight 4:46 AM MST 7:24 PM MST
Moon 4:39 AM MST (3/9) 4:00 PM MST (3/9)
Length of Visible Light 12h 34m
Length of Day
11h 40m
Waning Crescent, 5% of the Moon is Illuminated
Mar 9
Waning Crescent
Mar 11
New
Mar 19
First Quarter
Mar 27
Full
Apr 2
Last Quarter

Hourly Weather History & Observations

Time (MST) Temp. Windchill Dew Point Humidity Pressure Visibility Wind Dir Wind Speed Gust Speed Precip Events Conditions
12:55 AM 32.0 °F 24.8 °F 28.9 °F 88% 29.57 in 9.0 mi NNW 8.1 mph - N/A   Partly Cloudy
1:55 AM 28.9 °F - 28.0 °F 96% 29.60 in 6.0 mi Calm Calm - N/A   Clear
2:55 AM 30.0 °F 21.7 °F 28.9 °F 96% 29.55 in 6.0 mi WNW 9.2 mph - N/A   Clear
3:47 AM 32.0 °F 22.1 °F 30.2 °F 93% 29.59 in 4.0 mi NW 13.8 mph - N/A   Mostly Cloudy
3:55 AM 32.0 °F 23.0 °F 30.9 °F 96% 29.53 in 4.0 mi NW 11.5 mph - N/A   Scattered Clouds
4:45 AM 32.0 °F 24.2 °F 30.2 °F 93% 29.60 in 6.0 mi NNW 9.2 mph - N/A   Mostly Cloudy
5:31 AM 32.0 °F 21.6 °F 30.2 °F 93% 29.59 in 5.0 mi NNW 15.0 mph - N/A   Overcast
5:55 AM 32.0 °F 21.6 °F 30.0 °F 92% 29.57 in 5.0 mi NNW 15.0 mph - N/A   Overcast
6:15 AM 32.0 °F 23.0 °F 30.2 °F 93% 29.60 in 5.0 mi NNW 11.5 mph - N/A   Overcast
6:25 AM 32.0 °F 24.2 °F 30.2 °F 93% 29.60 in 5.0 mi NNW 9.2 mph - N/A   Overcast
6:55 AM 33.1 °F 23.9 °F 30.9 °F 92% 29.59 in 3.0 mi North 12.7 mph - N/A   Overcast
6:59 AM 33.8 °F 24.8 °F 30.2 °F 87% 29.61 in 4.0 mi North 12.7 mph - N/A   Overcast
7:18 AM 33.8 °F 23.2 °F 30.2 °F 87% 29.61 in 6.0 mi North 17.3 mph 23.0 mph N/A   Overcast
7:43 AM 32.0 °F 19.8 °F 30.2 °F 93% 29.62 in 3.0 mi North 20.7 mph 25.3 mph N/A   Overcast
7:51 AM 32.0 °F 19.5 °F 30.2 °F 93% 29.62 in 2.5 mi North 21.9 mph 28.8 mph N/A   Overcast
7:55 AM 32.0 °F 19.8 °F 30.9 °F 96% 29.61 in 2.5 mi North 20.7 mph - N/A   Overcast
8:19 AM 32.0 °F 19.8 °F 30.2 °F 93% 29.63 in 3.0 mi North 20.7 mph 26.5 mph N/A   Overcast
8:55 AM 32.0 °F 19.8 °F 30.0 °F 92% 29.63 in 6.0 mi NNW 20.7 mph 29.9 mph 0.00 in   Overcast
9:04 AM 32.0 °F 20.1 °F 30.2 °F 93% 29.63 in 6.0 mi NNW 19.6 mph 27.6 mph N/A   Overcast
9:31 AM 32.0 °F 18.9 °F 30.2 °F 93% 29.63 in 2.5 mi NNW 24.2 mph 31.1 mph 0.00 in Snow Light Snow
9:45 AM 32.0 °F 19.8 °F 30.2 °F 93% 29.63 in 2.5 mi NNW 20.7 mph 35.7 mph 0.00 in Snow Light Snow
9:55 AM 30.9 °F 17.5 °F 28.9 °F 92% 29.65 in 2.0 mi NNW 24.2 mph 34.5 mph 0.00 in Snow Light Snow
10:02 AM 30.2 °F 16.5 °F 30.2 °F 100% 29.63 in 1.8 mi NNW 24.2 mph - 0.00 in Snow Light Snow
10:23 AM 30.2 °F 16.2 °F 28.4 °F 93% 29.64 in 0.8 mi NNW 25.3 mph 31.1 mph 0.00 in Snow Light Snow
10:35 AM 30.2 °F 17.4 °F 28.4 °F 93% 29.64 in 1.0 mi NNW 20.7 mph 29.9 mph 0.00 in Snow Light Snow
10:55 AM 30.0 °F 16.6 °F 28.0 °F 92% 29.67 in 1.0 mi NNW 23.0 mph 39.1 mph 0.01 in Snow Light Snow
11:05 AM 30.2 °F 15.9 °F 28.4 °F 93% 29.65 in 0.5 mi NNW 26.5 mph 36.8 mph 0.00 in Fog , Snow Snow
11:22 AM 30.2 °F 15.9 °F 28.4 °F 93% 29.66 in 1.5 mi NNW 26.5 mph 39.1 mph 0.00 in Snow Light Snow
11:32 AM 30.2 °F 14.9 °F 28.4 °F 93% 29.66 in 2.5 mi NNW 31.1 mph 42.6 mph 0.01 in Snow Light Snow
11:44 AM 30.2 °F 16.2 °F 28.4 °F 93% 29.66 in 1.2 mi North 25.3 mph 39.1 mph 0.01 in Snow Light Snow
11:52 AM 28.4 °F 13.3 °F 28.4 °F 100% 29.67 in 0.5 mi North 27.6 mph 39.1 mph 0.01 in Fog , Snow Snow
11:53 AM 28.4 °F 14.1 °F 28.4 °F 100% 29.67 in 0.2 mi North 24.2 mph 39.1 mph 0.01 in Fog , Snow Heavy Snow
11:55 AM 28.9 °F 14.3 °F 28.0 °F 96% 29.70 in 0.2 mi North 26.5 mph 39.1 mph 0.01 in Fog , Snow Heavy Snow
12:07 PM 28.4 °F 12.5 °F 26.6 °F 93% 29.67 in 0.2 mi NNW 31.1 mph 40.3 mph 0.01 in Fog , Snow Heavy Snow
12:55 PM 28.0 °F 11.8 °F 27.0 °F 96% 29.70 in 0.2 mi NNW 32.2 mph 41.4 mph 0.04 in Fog Light Freezing Fog
1:55 PM 27.0 °F 9.6 °F 26.1 °F 96% 29.74 in 0.2 mi North 35.7 mph 50.6 mph 0.03 in Fog , Snow Heavy Snow
2:55 PM 28.0 °F 13.0 °F 27.0 °F 96% 29.76 in 0.5 mi NNW 26.5 mph 34.5 mph 0.02 in Fog , Snow Snow
3:06 PM 28.4 °F 12.3 °F 26.6 °F 93% 29.73 in 0.2 mi North 32.2 mph 42.6 mph 0.00 in Fog , Snow Heavy Snow
3:30 PM 28.4 °F 13.3 °F 26.6 °F 93% 29.73 in 0.5 mi NNW 27.6 mph 38.0 mph 0.01 in Fog Light Freezing Fog
3:55 PM 27.0 °F 8.8 °F 26.1 °F 96% 29.78 in 0.2 mi North 40.3 mph 50.6 mph 0.02 in Fog Light Freezing Fog
4:32 PM 28.4 °F 13.3 °F 26.6 °F 93% 29.76 in 0.5 mi North 27.6 mph 39.1 mph 0.02 in Fog Light Freezing Fog
4:55 PM 28.0 °F 12.5 °F 26.1 °F 92% 29.81 in 0.8 mi North 28.8 mph 38.0 mph 0.02 in   Mist
5:23 PM 26.6 °F 8.7 °F 26.6 °F 100% 29.78 in 0.2 mi North 38.0 mph 50.6 mph 0.01 in Fog Light Freezing Fog
5:43 PM 26.6 °F 9.1 °F 26.6 °F 100% 29.80 in 0.5 mi North 35.7 mph 43.7 mph 0.02 in Fog Light Freezing Fog
5:55 PM 27.0 °F 9.4 °F 26.1 °F 96% 29.84 in 0.5 mi North 36.8 mph 46.0 mph 0.02 in Fog Light Freezing Fog
6:06 PM 26.6 °F 9.1 °F 24.8 °F 93% 29.81 in 0.8 mi North 35.7 mph 47.2 mph N/A   Mist
6:13 PM 26.6 °F 9.3 °F 24.8 °F 93% 29.81 in 1.8 mi North 34.5 mph 44.9 mph N/A   Overcast
6:39 PM 26.6 °F 9.8 °F 24.8 °F 93% 29.83 in 2.0 mi North 32.2 mph 42.6 mph N/A   Overcast
6:52 PM 28.4 °F 14.4 °F 24.8 °F 86% 29.83 in 5.0 mi North 23.0 mph 40.3 mph N/A   Overcast
6:55 PM 28.0 °F 13.3 °F 24.1 °F 85% 29.87 in 8.0 mi NNW 25.3 mph 35.7 mph N/A   Overcast
7:55 PM 27.0 °F 10.3 °F 23.0 °F 85% 29.91 in 2.5 mi NNW 32.2 mph 41.4 mph N/A   Overcast
8:22 PM 26.6 °F 9.1 °F 21.2 °F 80% 29.88 in 1.8 mi NNW 35.7 mph 43.7 mph N/A   Overcast
8:36 PM 26.6 °F 9.1 °F 21.2 °F 80% 29.90 in - North 35.7 mph 44.9 mph N/A   Overcast
8:43 PM 26.6 °F 9.8 °F 21.2 °F 80% 29.90 in 2.0 mi NNW 32.2 mph 44.9 mph N/A   Haze
8:55 PM 25.0 °F 7.3 °F 19.9 °F 81% 29.96 in 2.0 mi NNW 33.4 mph 42.6 mph N/A   Haze
9:55 PM 24.1 °F 6.1 °F 19.0 °F 81% 30.01 in 2.5 mi NNW 33.4 mph 41.4 mph N/A   Haze
10:28 PM 24.8 °F 7.9 °F 19.4 °F 80% 29.96 in 3.0 mi North 29.9 mph 42.6 mph N/A   Haze
10:55 PM 21.9 °F 5.5 °F 18.0 °F 85% 30.04 in 8.0 mi NNW 24.2 mph 41.4 mph N/A   Mostly Cloudy
11:55 PM 19.0 °F 2.4 °F 14.0 °F 81% 30.08 in 10.0 mi NNW 21.9 mph - N/A   Clear